Albany, NY

10:57 PM EDT on July 25, 2017 (GMT -0400)
Albany International

Weather History for KALB - December, 2013

Change the Weather History Date:

Friday, December 20, 2013

  Actual Average Record
Temperature  
Mean Temperature 38 °F 27 °F  
Max Temperature 44 °F 34 °F 61 °F (1957)
Min Temperature 32 °F 20 °F -19 °F (1951)
Degree Days  
Heating Degree Days 27 38  
Month to date heating degree days 769 692  
Since 1 July heating degree days 2139 2096  
Cooling Degree Days 0 0  
Month to date cooling degree days 0 0  
Year to date cooling degree days 763 598  
Moisture  
Dew Point 28 °F    
Average Humidity 67    
Maximum Humidity 76    
Minimum Humidity 58    
Precipitation  
Precipitation 0.06 in 0.09 in 1.54 in (1957)
Month to date precipitation 2.06 1.98  
Year to date precipitation 42.51 38.40  
Snow  
Snow 0.00 in 0.50 in 8.40 in (1975)
Month to date snowfall 18.8 8.0  
Since 1 July snowfall 20.9 11.1  
Snow Depth 9.00 in    
Sea Level Pressure  
Sea Level Pressure 29.98 in    
Wind  
Wind Speed 7 mph (South)    
Max Wind Speed 14 mph    
Max Gust Speed 21 mph    
Visibility 10 miles    
Events Rain    
T = Trace of Precipitation, MM = Missing Value Source: NWS Daily Summary

Daily Weather History Graph

Daily Weather History Graph

Search for Another Location

Airport or City:

Trip Planner

Search our weather history database for the weather conditions in past years. The results will help you decide how hot, cold, wet, or windy it might be!

Date:

Astronomy

Dec. 20, 2013 Rise Set
Actual Time 7:21 AM EST 4:23 PM EST
Civil Twilight 6:49 AM EST 4:56 PM EST
Nautical Twilight 6:13 AM EST 5:31 PM EST
Astronomical Twilight 5:39 AM EST 6:06 PM EST
Moon 7:46 PM EST (12/20) 9:10 AM EST (12/20)
Length of Visible Light 10h 06m
Length of Day
9h 02m
Waning Gibbous, 90% of the Moon is Illuminated
Dec 20
Waning Gibbous
Dec 25
Last Quarter
Jan 1
New
Jan 7
First Quarter
Jan 15
Full

Hourly Weather History & Observations

Time (EST) Temp. Windchill Dew Point Humidity Pressure Visibility Wind Dir Wind Speed Gust Speed Precip Events Conditions
12:51 AM 34.0 °F 28.8 °F 24.1 °F 67% 30.09 in 10.0 mi South 5.8 mph - N/A   Overcast
1:51 AM 33.1 °F - 25.0 °F 72% 30.09 in 10.0 mi Calm Calm - N/A   Overcast
2:51 AM 34.0 °F - 26.1 °F 73% 30.08 in 10.0 mi Calm Calm - N/A   Overcast
3:51 AM 35.1 °F 31.0 °F 25.0 °F 67% 30.06 in 10.0 mi South 4.6 mph - N/A   Overcast
4:51 AM 36.0 °F 31.1 °F 25.0 °F 64% 30.05 in 10.0 mi South 5.8 mph - N/A   Overcast
5:51 AM 36.0 °F 29.6 °F 25.0 °F 64% 30.04 in 10.0 mi South 8.1 mph - N/A   Overcast
6:51 AM 35.1 °F 27.4 °F 25.0 °F 67% 30.02 in 10.0 mi South 10.4 mph - N/A   Overcast
7:51 AM 35.1 °F 27.4 °F 25.0 °F 67% 30.01 in 10.0 mi South 10.4 mph - N/A   Overcast
8:51 AM 36.0 °F 28.0 °F 26.1 °F 67% 30.01 in 10.0 mi SSE 11.5 mph - N/A   Overcast
9:51 AM 37.0 °F 29.8 °F 27.0 °F 67% 29.99 in 10.0 mi South 10.4 mph - N/A   Overcast
10:51 AM 37.9 °F 30.0 °F 27.0 °F 65% 29.96 in 10.0 mi South 12.7 mph - N/A   Overcast
11:51 AM 39.9 °F 32.5 °F 27.0 °F 60% 29.93 in 10.0 mi South 12.7 mph 20.7 mph N/A   Overcast
12:51 PM 39.9 °F 34.5 °F 28.0 °F 63% 29.93 in 10.0 mi SSW 8.1 mph - 0.00 in Rain Light Rain
1:51 PM 37.9 °F 35.5 °F 30.0 °F 73% 29.93 in 9.0 mi SSW 3.5 mph - 0.01 in Rain Light Rain
2:51 PM 39.0 °F - 32.0 °F 76% 29.92 in 10.0 mi Calm Calm - 0.01 in   Overcast
3:51 PM 37.0 °F - 30.9 °F 79% 29.91 in 10.0 mi Calm Calm - N/A   Overcast
4:51 PM 39.0 °F - 30.9 °F 73% 29.91 in 10.0 mi Calm Calm - 0.00 in   Overcast
5:51 PM 39.0 °F - 30.9 °F 73% 29.91 in 10.0 mi Calm Calm - N/A   Overcast
6:51 PM 39.0 °F 36.8 °F 30.9 °F 73% 29.93 in 10.0 mi South 3.5 mph - N/A   Overcast
7:51 PM 44.1 °F 39.5 °F 32.0 °F 63% 29.94 in 10.0 mi South 8.1 mph - N/A   Overcast
8:51 PM 44.1 °F 39.0 °F 30.0 °F 58% 29.92 in 10.0 mi South 9.2 mph - N/A   Overcast
9:51 PM 43.0 °F 37.2 °F 30.0 °F 60% 29.92 in 10.0 mi South 10.4 mph - 0.00 in Rain Light Rain
10:51 PM 41.0 °F 34.3 °F 32.0 °F 70% 29.92 in 8.0 mi South 11.5 mph - 0.01 in Rain Rain
11:51 PM 42.1 °F 36.6 °F 32.0 °F 67% 29.92 in 10.0 mi SSE 9.2 mph - 0.03 in Rain Light Rain